Location: Caltech
(34.1382°N, 118.1253°W)
Time: 16:29:11
(UTC-07:00)

Oscar 10/S400 - Visible Passes

Search period start: 16 September 2014 00:00
Search period end: 26 September 2014 00:00
Orbit: 3995 x 35452 km, 26.1° (Epoch: 15 September)

Date Brightness Start Highest point End Pass type
(mag) Time Alt. Az. Time Alt. Az. Time Alt. Az.
16 Sep ? 02:29:27 10° W 03:46:52 38° WSW 08:25:52 10° SW visible
17 Sep ? 12:02:16 10° SSW 03:04:22 45° SW 12:35:48 10° SE visible
18 Sep ? 11:08:59 10° SSW 02:28:14 51° SSW 11:45:30 10° SE visible
19 Sep ? 00:09:29 10° W 01:07:18 58° SSW 10:52:30 10° SSE visible
19 Sep ? 23:24:20 10° W 00:12:11 63° SSW 09:58:47 10° SSE visible
20 Sep ? 22:39:33 10° W 23:18:57 67° SSW 09:06:36 10° SSE visible
21 Sep ? 21:55:02 10° W 22:27:55 71° SSW 08:14:37 10° SSE visible
22 Sep ? 21:10:41 10° W 21:38:44 73° S 07:21:21 10° SSE visible
23 Sep ? 20:26:26 10° W 20:50:57 74° S 06:25:27 10° SSE visible
24 Sep ? 19:42:14 10° W 20:04:12 74° S 05:24:49 10° SSE visible
25 Sep ? 18:58:02 10° WSW 19:18:15 73° S 20:22:49 22° E visible
